Weather in Savinki

Russia / Lipetsk Oblast     52°59′04″N   38°59′57″E
temp.,
°C
wind,
m/s
gust,
m/s
humid.,
%
clouds,
%
prec.,
mm/h
press.,
hPa
HPBL,
m
20 may, fri
fri2000:00+7n229195 0.0 101514
03:00+7n3492100 0.0 101462
06:00+8nnw488819 0.1 1015481
09:00+10nne677037 0.3 10161045
12:00+12n675268 0.0 10171854
15:00+12n6750100 0.0 10161839
18:00+11nne4556100 0.0 10161149
21:00+6nne2267100 0.0 101718
21 may, sat
sat2100:00+5ene1165100 0.0 101610
03:00+4ese1168100 0.0 101510
06:00+6sse1268100 0.0 101579
09:00+10se4457100 0.0 1013901
12:00+12se444888 0.0 10111565
15:00+14sse334613 0.0 10101905
18:00+13sse3456100 0.0 10081587
21:00+8s3368100 0.0 100847
22 may, sun
sun2200:00+7sse3469100 0.0 100570
03:00+7sse3774100 0.1 1003303
06:00+6ese61289100 1.6 1001786
09:00+5ese71294100 7.6 1000799
12:00+5e71393100 4.1 1000854
15:00+8ene588099 4.6 10001052
18:00+6nne3109399 0.6 1001689
21:00+6nnw229161 0.6 100323
23 may, mon
mon2300:00+3n36865 0.0 1004109
03:00+2nnw35905 0.0 100583
06:00+4nw38865 0.0 1006230
09:00+9nw58615 0.0 1007986
12:00+11nnw674656 0.0 10062029
15:00+13nw674798 0.0 10062070
18:00+12nw475759 0.0 1006943
21:00+7wnw47755 0.1 100799
24 may, tue
tue2400:00+5wnw467923 0.0 100889
03:00+4wnw3671100 0.0 1009109
06:00+5wnw497259 0.0 1009260
09:00+10nw5851100 0.0 1010768
12:00+12nw7942100 0.0 10101435
15:00+13nw7943100 0.0 10101821
18:00+13nw585347 0.0 10111138
21:00+7nw33706 0.0 101422